Cape Byron Observation History
Time Wind Speed Temp Pressure Rel. Hum Rain
19/06:30pm SSE 15-20 kts 17.7°c 1020.1 hPa 67% 0.0mm
19/06:00pm SSE 14-19 kts 17.7°c 1019.7 hPa 68% 0.0mm
19/05:30pm SSE 16-21 kts 17.7°c 1019.4 hPa 67% 0.0mm
19/05:00pm S 17-20 kts 17.7°c 1019.2 hPa 66% 0.0mm
19/04:30pm S 16-21 kts 17.9°c 1018.9 hPa 68% 0.0mm
19/04:00pm S 18-22 kts 17.9°c 1018.8 hPa 67% 0.0mm
19/03:30pm S 18-22 kts 17.9°c 1018.7 hPa 68% 0.0mm
19/03:00pm S 19-23 kts 18.3°c 1018.2 hPa 67% 0.0mm
19/02:30pm S 20-25 kts 18.2°c 1018.1 hPa 67% 0.0mm
19/02:00pm SSW 19-25 kts 18.5°c 1017.9 hPa 71% 0.0mm
19/01:30pm S 20-23 kts 18.4°c 1017.6 hPa 69% 0.0mm
19/01:00pm SSW 17-22 kts 18.7°c 1017.8 hPa 71% 0.0mm
19/12:30pm SSW 17-23 kts 18.6°c 1017.9 hPa 71% 0.0mm
19/12:00pm SSW 13-20 kts 18.5°c 1018.3 hPa 69% 0.0mm
19/11:30am SW 14-20 kts 18.1°c 1018.8 hPa 71% 0.0mm
19/11:00am SW 13-18 kts 18.0°c 1018.9 hPa 72% 0.0mm
19/10:30am SW 10-14 kts 17.6°c 1019.3 hPa 73% 0.0mm
19/10:00am SW 10-13 kts 17.1°c 1019.4 hPa 73% 0.0mm
19/09:30am SW 11-15 kts 16.4°c 1019.1 hPa 75% 0.0mm
19/09:00am WSW 12-16 kts 15.7°c 1019.0 hPa 75% 0.0mm
19/08:30am WSW 12-15 kts 15.0°c 1018.8 hPa 78% 0.0mm
19/08:00am WSW 14-18 kts 14.5°c 1018.6 hPa 78% 0.0mm
19/07:30am WSW 16-21 kts 14.2°c 1018.0 hPa 76% 0.0mm
19/07:00am WSW 16-19 kts 14.5°c 1017.8 hPa 75% 0.0mm
19/06:30am WSW 16-19 kts 14.5°c 1017.5 hPa 76% 0.0mm
19/06:00am WSW 14-17 kts 14.5°c 1017.1 hPa 77% 0.0mm
19/05:30am WSW 14-18 kts 14.4°c 1016.7 hPa 78% 0.0mm
19/05:00am WSW 12-16 kts 14.3°c 1016.5 hPa 81% 0.0mm
19/04:30am WSW 12-16 kts 13.8°c 1016.2 hPa 84% 0.0mm
19/04:00am WSW 12-15 kts 15.1°c 1016.1 hPa 79% 0.0mm
19/03:30am WSW 12-16 kts 15.5°c 1016.2 hPa 79% 0.0mm
19/03:00am WSW 13-15 kts 15.8°c 1016.4 hPa 80% 0.0mm
19/02:30am W 15-18 kts 15.6°c 1016.5 hPa 76% 0.0mm
19/02:00am WSW 11-13 kts 16.4°c 1016.7 hPa 79% 0.0mm
19/01:30am WSW 11-13 kts 16.5°c 1016.8 hPa 78% 0.0mm
19/01:00am WSW 12-15 kts 16.7°c 1016.8 hPa 77% 0.0mm
19/12:30am WSW 13-15 kts 16.7°c 1016.8 hPa 75% 0.0mm
19/12:00am WSW 12-14 kts 16.7°c 1017.0 hPa 74% 0.0mm
Time Wind Speed Temp Pressure Rel. Hum Rain
18/11:30pm WSW 12-13 kts 17.1°c 1017.3 hPa 73% 0.0mm
18/11:00pm WSW 11-13 kts 17.2°c 1017.4 hPa 74% 0.0mm
18/10:30pm WSW 9-11 kts 17.1°c 1017.5 hPa 75% 0.0mm
18/10:00pm WSW 10-13 kts 17.0°c 1017.4 hPa 72% 0.0mm
18/09:30pm WSW 11-13 kts 17.1°c 1017.4 hPa 74% 0.0mm
18/09:00pm WSW 10-12 kts 17.3°c 1017.5 hPa 72% 0.0mm
18/08:30pm WSW 11-14 kts 17.1°c 1017.4 hPa 72% 0.0mm
18/08:00pm WSW 10-12 kts 17.1°c 1017.3 hPa 71% 0.0mm
18/07:30pm SW 9-11 kts 17.2°c 1017.4 hPa 70% 0.0mm
18/07:00pm SW 10-12 kts 16.9°c 1017.2 hPa 71% 0.0mm
18/06:30pm SW 10-12 kts 17.1°c 1017.1 hPa 72% 0.0mm
18/06:00pm WSW 8-10 kts 16.7°c 1016.8 hPa 75% 0.0mm
18/05:30pm WSW 9-11 kts 16.9°c 1016.6 hPa 73% 0.0mm
18/05:00pm SW 12-14 kts 17.2°c 1016.2 hPa 72% 0.0mm
18/04:30pm SW 12-15 kts 17.6°c 1016.0 hPa 71% 0.0mm
18/04:00pm SW 11-14 kts 17.8°c 1015.8 hPa 70% 0.0mm
18/03:30pm SW 11-15 kts 18.3°c 1015.7 hPa 67% 0.0mm
18/03:00pm WSW 12-16 kts 18.2°c 1015.9 hPa 67% 0.0mm
18/02:30pm WSW 11-15 kts 18.0°c 1016.1 hPa 68% 0.0mm
18/02:00pm WSW 11-15 kts 17.8°c 1016.2 hPa 70% 0.0mm
18/01:30pm WSW 12-16 kts 17.8°c 1016.2 hPa 69% 0.0mm
18/01:00pm SW 13-18 kts 18.8°c 1016.4 hPa 66% 0.0mm
18/12:30pm WSW 12-17 kts 17.9°c 1016.7 hPa 68% 0.0mm
18/12:00pm WSW 13-17 kts 17.5°c 1016.9 hPa 64% 0.0mm
18/11:30am WSW 14-19 kts 17.8°c 1017.3 hPa 63% 0.0mm
18/11:00am SW 13-17 kts 17.3°c 1017.7 hPa 61% 0.0mm
18/10:30am WSW 13-17 kts 17.0°c 1017.9 hPa 61% 0.0mm
18/10:00am WSW 12-16 kts 16.9°c 1018.0 hPa 60% 0.0mm
18/09:30am WSW 15-21 kts 15.9°c 1018.0 hPa 60% 0.0mm
18/09:00am WSW 15-21 kts 15.5°c 1017.8 hPa 59% 0.0mm
18/08:30am WSW 16-21 kts 15.3°c 1017.6 hPa 59% 0.0mm
18/08:00am WSW 16-19 kts 15.0°c 1017.8 hPa 57% 0.0mm
18/07:30am WSW 15-19 kts 14.6°c 1017.8 hPa 57% 0.0mm
18/07:00am WSW 16-18 kts 15.1°c 1017.6 hPa 58% 0.0mm
18/06:30am WSW 17-20 kts 14.3°c 1017.3 hPa 58% 0.0mm
18/06:00am WSW 17-21 kts 13.7°c 1016.9 hPa 60% 0.0mm
18/05:30am WSW 17-21 kts 13.3°c 1016.4 hPa 60% 0.0mm
18/05:00am WSW 17-21 kts 13.9°c 1016.3 hPa 60% 0.0mm
18/04:30am WSW 17-21 kts 14.2°c 1016.3 hPa 61% 0.0mm
18/04:00am WSW 16-19 kts 13.8°c 1016.4 hPa 58% 0.0mm
18/03:30am WSW 18-23 kts 14.2°c 1016.1 hPa 54% 0.0mm
18/03:00am WSW 17-20 kts 14.7°c 1016.2 hPa 51% 0.0mm
18/02:30am WSW 17-21 kts 14.9°c 1016.3 hPa 50% 0.0mm
18/02:00am W 16-19 kts 15.3°c 1016.4 hPa 49% 0.0mm
18/01:30am W 14-18 kts 14.1°c 1016.7 hPa 56% 0.0mm
18/01:00am W 15-18 kts 15.4°c 1016.8 hPa 50% 0.0mm
18/12:30am W 12-13 kts 14.9°c 1016.9 hPa 54% 0.0mm
18/12:00am W 11-13 kts 15.0°c 1017.0 hPa 55% 0.0mm
Time Wind Speed Temp Pressure Rel. Hum Rain
17/11:30pm WSW 8-9 kts 16.2°c 1017.2 hPa 59% 0.0mm
17/11:00pm WSW 7-9 kts 16.3°c 1017.2 hPa 61% 0.0mm
17/10:30pm W 10-11 kts 16.0°c 1017.3 hPa 66% 0.0mm
17/10:00pm W 10-11 kts 15.4°c 1017.5 hPa 68% 0.0mm
17/09:30pm WNW 11-12 kts 15.0°c 1017.4 hPa 71% 0.0mm
17/09:00pm W 10-11 kts 15.2°c 1017.5 hPa 71% 0.0mm
17/08:30pm W 10-11 kts 15.4°c 1017.4 hPa 70% 0.0mm
17/08:00pm W 9-11 kts 15.3°c 1017.2 hPa 71% 0.0mm
17/07:30pm SW 8 kts 16.3°c 1017.0 hPa 68% 0.0mm
17/07:00pm SW 8-9 kts 16.1°c 1016.8 hPa 68% 0.0mm
17/06:30pm SW 7-8 kts 16.3°c 1016.5 hPa 67% 0.0mm
17/06:00pm SSW 7-8 kts 16.4°c 1016.3 hPa 65% 0.0mm
17/05:30pm SSW 7-8 kts 16.6°c 1016.0 hPa 67% 0.0mm
17/05:00pm SSW 8-9 kts 16.5°c 1015.9 hPa 67% 0.0mm
17/04:30pm SW 8-12 kts 17.0°c 1015.7 hPa 65% 0.0mm
17/04:00pm SSW 12-15 kts 17.8°c 1015.5 hPa 60% 0.0mm
17/03:30pm SSW 12-15 kts 18.0°c 1015.3 hPa 60% 0.0mm
17/03:00pm S 12-15 kts 18.1°c 1015.2 hPa 62% 0.0mm
17/02:30pm S 15-19 kts 17.7°c 1015.2 hPa 62% 0.0mm
17/02:00pm S 14-19 kts 18.3°c 1015.1 hPa 61% 0.0mm
17/01:30pm SSW 11-15 kts 18.4°c 1015.3 hPa 57% 0.0mm
17/01:00pm SW 13-19 kts 18.1°c 1015.4 hPa 60% 0.0mm
17/12:30pm SW 13-19 kts 17.9°c 1015.7 hPa 61% 0.0mm
17/12:00pm SW 12-16 kts 17.5°c 1016.1 hPa 61% 0.0mm
17/11:30am SW 14-21 kts 17.2°c 1016.4 hPa 56% 0.0mm
17/11:00am WSW 18-27 kts 16.5°c 1016.4 hPa 49% 0.0mm
17/10:30am WSW 16-25 kts 16.4°c 1016.6 hPa 48% 0.0mm
17/10:00am WSW 12-17 kts 16.1°c 1016.7 hPa 53% 0.0mm
17/09:30am WSW 13-20 kts 15.7°c 1016.8 hPa 56% 0.0mm
17/09:00am W 13-19 kts 15.7°c 1016.7 hPa 59% 3.8mm
17/08:30am W 12-18 kts 15.1°c 1016.5 hPa 62% 3.8mm
17/08:00am W 15-20 kts 15.1°c 1016.2 hPa 64% 3.8mm
17/07:30am W 15-25 kts 15.4°c 1016.1 hPa 65% 3.8mm
17/07:26am W 15-25 kts 15.5°c 1016.1 hPa 64% 3.8mm
17/07:00am W 11-15 kts 15.2°c 1016.1 hPa 70% 3.8mm
17/06:30am NW 6-9 kts 15.0°c 1016.0 hPa 74% 3.8mm
17/06:00am WNW 9-12 kts 15.1°c 1015.7 hPa 78% 3.8mm
17/05:30am W 8-12 kts 15.4°c 1015.6 hPa 82% 3.8mm
17/05:00am NW 5-7 kts 15.5°c 1015.3 hPa 88% 3.6mm
17/04:30am WNW 8-14 kts 15.7°c 1015.1 hPa 89% 3.6mm
17/04:00am WNW 7-10 kts 15.5°c 1015.0 hPa 94% 3.6mm
17/03:30am W 9-13 kts 15.5°c 1015.2 hPa 95% 3.6mm
17/03:00am WSW 10-13 kts 15.7°c 1015.1 hPa 91% 3.6mm
17/02:30am W 11-12 kts 15.5°c 1015.1 hPa 91% 3.6mm
17/02:00am NW 5-9 kts 15.8°c 1015.5 hPa 90% 3.6mm
17/01:30am W 7-9 kts 16.6°c 1015.6 hPa 81% 3.6mm
17/01:00am WSW 9-10 kts 16.9°c 1015.6 hPa 76% 3.6mm
17/12:30am W 7-9 kts 16.2°c 1015.9 hPa 85% 3.6mm
17/12:00am W 10-11 kts 15.5°c 1016.2 hPa 93% 3.6mm